Regional Weather Roundup
Issued by NWS

Home | Current Version | Previous Version | Text Only | Print | Product List | Glossary Off
Versions: 1 2 3 4 5 6 7 8 9 10 11 12 13 14 15 16 17 18 19 20 21 22 23 24 25 26 27 28 29 30 31 32 33 34 35 36 37 38 39 40 41 42 43 44 45 46 47 48 49 50

000
ASUS45 KABQ 300901
RWRNM
WEATHER ROUNDUP FOR NEW MEXICO
NATIONAL WEATHER SERVICE ALBUQUERQUE NM
300 AM MDT SAT AUG 30 2014

NOTE: "FAIR" MEANS FEW OR NO CLOUDS BELOW 12,000 FEET AGL WITH NO
       SIGNIFICANT WEATHER OR OBSTRUCTIONS TO VISION.

      THIS PRODUCT IS RELEASED AS TWO VERSIONS.  ONE VERSION NEAR
      THE TOP OF THE HOUR CONTAINING PRELIMINARY DATA FROM ALBUQUERQUE
      AND OTHER STATIONS.  A FINAL VERSION WITH ADDITIONAL DATA IS
      ISSUED ABOUT 10 MINUTES AFTER THE HOUR.

NMZ501-503-504-510>518-301000-
NORTHWEST PLATEAU/NORTHCENTRAL MOUNTAINS

CITY           SKY/WX    TMP DP  RH WIND       PRES   REMARKS
FARMINGTON     CLEAR     57  43  59 NE6       30.12F
SANTA FE       CLEAR     63  41  44 CALM      30.22R
ANGEL FIRE     FAIR      45  40  80 S3        30.40S

$$
NMZ402-403-502-505>509-301000-
WESTCENTRAL MOUNTAINS/SOUTHWEST MOUNTAINS

CITY           SKY/WX    TMP DP  RH WIND       PRES   REMARKS
GALLUP         PTCLDY    49  29  46 CALM      30.22S
SILVER CITY    MOCLDY    64  41  42 NW5       30.16R

$$
NMZ407-409-411-412-301000-
SOUTHERN DESERTS

CITY           SKY/WX    TMP DP  RH WIND       PRES   REMARKS
LORDSBURG      FAIR      68  43  40 S5        30.06S
DEMING         CLOUDY    73  45  36 SW6       30.05F
LAS CRUCES     CLOUDY    72  41  33 CALM      30.08S
HOLLOMAN AFB   CLEAR     65  50  57 W2        30.04F
ALAMOGORDO     PTCLDY    68  46  45 NE5       30.07R
T OR C         MOCLDY    67  49  52 W5        30.09S

$$
NMZ519>523-301000-
CENTRAL VALLEYS/CENTRAL HIGHLANDS

CITY           SKY/WX    TMP DP  RH WIND       PRES   REMARKS
ALBUQUERQUE    CLEAR     69  42  37 N6        30.15R
DOUBLE EAGLE   CLEAR     57  43  59 CALM      30.18S
CLINES CORNERS CLEAR     59  43  55 S12       30.25S
BELEN          FAIR      56  44  61 CALM      30.14R
SOCORRO        FAIR      63  50  64 CALM      30.11S

$$
NMZ524>526-539-540-301000-
SOUTHCENTRAL MOUNTAINS

CITY           SKY/WX    TMP DP  RH WIND       PRES   REMARKS
RUIDOSO        NOT AVBL

$$
NMZ527>531-301000-
NORTHEAST HIGHLANDS/NORTHEAST PLAINS

CITY           SKY/WX    TMP DP  RH WIND       PRES   REMARKS
LAS VEGAS      MOCLDY    56  42  59 N9        30.30R
RATON          MOCLDY    61  44  53 NE6       30.25F
CLAYTON        MOCLDY    65  48  54 NW9       30.16F

$$
NMZ532>537-301000-
EASTCENTRAL PLAINS

CITY           SKY/WX    TMP DP  RH WIND       PRES   REMARKS
TUCUMCARI      PTCLDY    67  41  38 CALM      30.09R
CANNON AFB     CLEAR     65  59  79 CALM      30.11S
CLOVIS AIRPORT   N/A     64  54  68 SW3       30.13S

$$
NMZ028-029-538-301000-
SOUTHEAST PLAINS

CITY           SKY/WX    TMP DP  RH WIND       PRES   REMARKS
ROSWELL        CLEAR     70  56  61 S7        30.05S
CARLSBAD       PTCLDY    74  59  59 S7        30.03S
HOBBS          CLEAR     68  63  83 SE3       30.07S


$$



USA.gov is the U.S. government's official web portal to all federal, state and local government web resources and services.